Flag for U.S.A. Weather past 2 weeks in Flint, Michigan, U.S.A.

Now
67 °F

Mostly cloudy.


Feels Like: 67 °F
Forecast: 63 / 81 °F
Wind: 5 mph from Southwest

Location: Bishop International Airport

Current Time: Aug 20, 2014 at 7:02:50 AM

Latest Report: Aug 20, 2014 at 5:53 AM


Visibility: 10 mi

Pressure: 29.79 "Hg

Humidity: 87%

Dew point: 63 °F

Location of FlintLocation

Historic Weather in Flint — Graph

°F

Flint temperature yesterday

Maximum temperature yesterday: 75 °F (at 9:53 AM)
Minimum temperature yesterday: 66 °F (at 5:03 PM)
Average temperature yesterday: 69 °F

Past Weeks' High & Low Weather Summary

 TemperatureHumidityPressure
High86 °F (Aug 10, 1:53 PM)90% (Aug 7, 6:53 AM)30.18 "Hg (Aug 7, 6:53 AM)
Low45 °F (Aug 15, 6:53 AM)33% (Aug 6, 6:53 PM)29.66 "Hg (Aug 12, 4:53 AM)
Average69 °F67%29.97 "Hg
* Reported Aug 5 5:53 AM — Aug 20 5:53 AM, Flint, Weather by CustomWeather, © 2014

Note: Actual official high and low records may vary slightly from our data, if they occured in-between our weather recording intervals... More about our weather records

Advertising

Flint weather history for previous 24 hours

 ConditionsComfort  
Time TempWeatherWind HumidityBarometerVisibility
5:53 AM
Aug 20
67 °FMostly cloudy.5 mph87%29.79 "Hg10 mi
4:53 AM66 °FPassing clouds.5 mph87%29.78 "Hg10 mi
3:53 AM66 °FPassing clouds.5 mph90%29.77 "Hg10 mi
2:53 AM67 °FPassing clouds.5 mph87%29.76 "Hg10 mi
1:53 AM67 °FOvercast.5 mph87%29.77 "Hg10 mi
12:53 AM67 °FLight rain. Overcast.6 mph87%29.78 "Hg7 mi
11:53 PM
Aug 19
66 °FClear.No wind87%29.77 "Hg10 mi
10:53 PM67 °FClear.7 mph87%29.77 "Hg10 mi
9:53 PM67 °FPassing clouds.8 mph87%29.77 "Hg10 mi
8:53 PM67 °FSunny.8 mph87%29.76 "Hg10 mi
7:53 PM68 °FPassing clouds.5 mph87%29.74 "Hg10 mi
6:53 PM67 °FLight rain. Broken clouds.8 mph90%29.74 "Hg9 mi
5:57 PM68 °FThunderstorms. Fog.8 mph90%29.76 "Hg5 mi
5:03 PM66 °FThunderstorms. Fog.8 mph87%29.76 "Hg4 mi
4:53 PM67 °FStrong thunderstorms. Mostly cloudy.8 mph85%29.75 "Hg1 mi
3:53 PM74 °FThunderstorms. Broken clouds.6 mph82%29.74 "Hg10 mi
2:53 PM74 °FCloudy.5 mph76%29.74 "Hg10 mi
1:53 PM73 °FSunny.9 mph74%29.76 "Hg10 mi
12:53 PM74 °FPassing clouds.12 mph76%29.76 "Hg10 mi
11:53 AM73 °FPassing clouds.10 mph81%29.77 "Hg10 mi
10:53 AM71 °FLight rain. Broken clouds.14 mph84%29.76 "Hg7 mi
9:53 AM75 °FPartly sunny.9 mph69%29.78 "Hg10 mi
9:00 AM72 °FPartly sunny.10 mph68%29.81 "Hg10 mi
7:53 AM69 °FMostly cloudy.8 mph81%29.80 "Hg10 mi
Weather by CustomWeather, © 2014

See weather overviewHow to use our weather pages